{"data":{"norad_id":64697,"intl_designator":"2025-142B","name":"STARLINK-34584","alt_names":[],"object_type":"PAYLOAD","status":"ACTIVE","operator":null,"country":"US","launch_date":"2025-06-28","launch_site_code":"AFWTR","launch_vehicle":null,"mission":null,"orbit_class":"UNKNOWN","rcs_meters":null,"size_class":null,"mass_kg":null,"dimensions":null,"purposes":["comms"],"wikipedia_slug":null,"has_3d_model":false,"image_url":null,"decayed_at":null,"tle_current":{"epoch":"2026-05-25T04:36:19.922400Z","epoch_age_seconds":65222,"freshness":"FRESH","line1":"1 64697U 25142B   26145.19189725  .00002034  00000+0  17821-3 0  9996","line2":"2 64697  70.0002 121.4227 0003677 265.9817  94.0921 14.98334641 50949","mean_motion":14.98334641,"eccentricity":0.0003677,"inclination_deg":70.0002,"raan_deg":121.4227,"arg_perigee_deg":265.9817,"mean_anomaly_deg":94.0921,"bstar":0.00017821,"rev_number":5094,"period_min":96.106701440136,"perigee_km":569.48595842298,"apogee_km":574.59711972062,"semimajor_km":6950.1785390718,"source":"CELESTRAK","updated_at":"2026-05-25T13:38:20.510355Z"}}}